This is the latest recevied weather packets stored in our database for station/object G0AMO. If no packets are shown the sender has not sent any weather packets the latest 10 day(s).
| Time | Temp. | Humidity | Pressure | Rain* | Wind** | Luminosity | Snow |
|---|---|---|---|---|---|---|---|
| 1778029805 | 9.44° C | 82% | 1012.9 hPa | 0 mm | - | 0 W/m² | - |
| 1778028304 | 9.44° C | 80% | 1014.6 hPa | 0 mm | - | 0 W/m² | - |
| 1778027704 | 9.44° C | 79% | 1014.2 hPa | 0 mm | - | 0 W/m² | - |
| 1778025004 | 10° C | 80% | 1014.2 hPa | 0 mm | - | 0 W/m² | - |
| 1778023204 | 10.56° C | 80% | 1013.9 hPa | 0 mm | - | 0 W/m² | - |
| 1778022305 | 10.56° C | 80% | 1013.9 hPa | 0 mm | - | 0 W/m² | - |
| 1778019604 | 11.67° C | 76% | 1013.9 hPa | 0 mm | - | 0 W/m² | - |
| 1778018704 | 11.67° C | 75% | 1013.9 hPa | 0 mm | - | 0 W/m² | - |
| 1778015704 | 11.67° C | 74% | 1012.9 hPa | 0 mm | - | 0 W/m² | - |
| 1778014505 | 12.22° C | 73% | 1013.9 hPa | 0 mm | - | 0 W/m² | - |
| 1778014204 | 12.22° C | 73% | 1012.9 hPa | 0 mm | - | 0 W/m² | - |
| 1778013004 | 12.22° C | 72% | 1013.5 hPa | 0 mm | - | 0 W/m² | - |
| 1778008805 | 13.33° C | 69% | 1012.7 hPa | 0 mm | - | 0 W/m² | - |
| 1778007304 | 13.33° C | 68% | 1012.2 hPa | 0 mm | - | 0 W/m² | - |
| 1778006704 | 13.33° C | 68% | 1012.5 hPa | 0 mm | - | 0 W/m² | - |
| 1778005806 | 13.89° C | 68% | 1012.2 hPa | 0 mm | - | 0 W/m² | - |
| 1778003403 | 13.89° C | 66% | 1012.9 hPa | 0 mm | - | 115 W/m² | - |
| 1778002504 | 13.89° C | 67% | 1012.2 hPa | 0 mm | - | 170 W/m² | - |
| 1778001305 | 14.44° C | 67% | 1012.2 hPa | 0 mm | - | 249 W/m² | - |
| 1777997104 | 15° C | 64% | 1012.9 hPa | 0 mm | - | 561 W/m² | - |
| 1777995904 | 15° C | 64% | 1012.9 hPa | 0 mm | - | 654 W/m² | - |
| 1777994105 | 15° C | 64% | 1012.9 hPa | 0 mm | - | 789 W/m² | - |
| 1777992004 | 15° C | 64% | 1012.9 hPa | 0 mm | - | 934 W/m² | - |
| 1777991405 | 15° C | 65% | 1012.9 hPa | 0 mm | - | 972 W/m² | - |
| 1777982105 | 15° C | 69% | 1013.6 hPa | 0 mm | - | 1198 W/m² | - |
* Rain latest hour (hover to see other rain measurements)
** Current wind speed in m/s (hover to see current wind gust speed)